Regional Weather Roundup
Issued by NWS Little Rock, AR

Home | Current Version | Previous Version | Graphics & Text | Print | Product List | Glossary On
Versions: 1 2 3 4 5 6 7 8 9 10 11 12 13 14 15 16 17 18 19 20 21 22 23 24 25 26 27 28 29 30 31 32 33 34 35 36 37 38 39 40 41 42 43 44 45 46 47 48 49 50
000
ASUS44 KLZK 010905
RWRLZK

WEATHER ROUNDUP FOR ARKANSAS
NATIONAL WEATHER SERVICE LITTLE ROCK AR
400 AM CDT TUE SEP 01 2015

NOTE: "FAIR" INDICATES FEW OR NO CLOUDS BELOW 12,000 FEET WITH NO
SIGNIFICANT WEATHER AND/OR OBSTRUCTIONS TO VISIBILITY.

ARZ001-003-010-029-011000-
NORTHWEST ARKANSAS

CITY           SKY/WX    TMP DP  RH WIND       PRES   REMARKS
FAYETTEVILLE   CLEAR     66  66 100 S5        30.08S FOG
FORT SMITH     CLEAR     72  67  84 NE3       30.05R
BENTONVILLE    CLEAR     70  63  78 CALM      30.08S
ROGERS         CLEAR     70  66  87 SE5       30.09S
SILOAM SPGS    CLEAR     70  61  73 SE3       30.06S
HIGHFILL       CLEAR     69  66  90 CALM      30.08R
$$

ARZ004-005-016-011000-
NORTH CENTRAL ARKANSAS

CITY           SKY/WX    TMP DP  RH WIND       PRES   REMARKS
BATESVILLE     CLEAR     72  70  94 CALM      30.07S
FLIPPIN        CLEAR     66  63  88 CALM      30.07R
MTN HOME       CLEAR     70  68  93 CALM      30.08R
$$

ARZ040-041-011000-
WEST CENTRAL ARKANSAS

CITY           SKY/WX    TMP DP  RH WIND       PRES   REMARKS
MENA           CLEAR     66  64  94 CALM      30.08S
MOUNT IDA      CLEAR     68  66  93 CALM      30.05R FOG
$$

ARZ009-017-025-026-028-011000-
NORTHEAST ARKANSAS

CITY           SKY/WX    TMP DP  RH WIND       PRES   REMARKS
JONESBORO      CLEAR     68  68 100 CALM      30.07S
NEWPORT        CLEAR     71  70  97 CALM      30.08S
WALNUT RIDGE   CLEAR     70  66  88 CALM      30.07S
BLYTHEVILLE    CLEAR     73  69  87 S5        30.08R
$$

ARZ022-023-033-042-044-011000-
CENTRAL ARKANSAS

CITY           SKY/WX    TMP DP  RH WIND       PRES   REMARKS
LITTLE ROCK    MOCLDY    75  69  81 NE3       30.05S
N LITTLE ROCK    N/A     74  71  88 SE5       30.05S
JACKSONVILLE   CLEAR     70  68  93 CALM      30.05S
SEARCY         PTCLDY    71  69  93 N3        30.08R
HOT SPRINGS    CLEAR     70  67  90 N5        30.06R
RUSSELLVILLE   CLEAR     68  67  96 CALM      30.05S FOG
$$

ARZ036-011000-
EAST ARKANSAS

CITY           SKY/WX    TMP DP  RH WIND       PRES   REMARKS
WEST MEMPHIS   PTCLDY    70  69  97 CALM      30.07R
$$

ARZ050-053-066-070-073-011000-
SOUTHWEST ARKANSAS

CITY           SKY/WX    TMP DP  RH WIND       PRES   REMARKS
ARKADELPHIA    FAIR      68  68 100 CALM      30.05S FOG
CAMDEN         MOCLDY    70  66  88 CALM      30.05S
TEXARKANA      PTCLDY    73  66  78 S7        30.05S
EL DORADO      MOCLDY    69  64  84 CALM      30.05F
DE QUEEN       FOG       66  66 100 CALM      30.04S VSB 1
$$

ARZ056-057-069-011000-
SOUTHEAST ARKANSAS

CITY           SKY/WX    TMP DP  RH WIND       PRES   REMARKS
PINE BLUFF     MOCLDY    71  68  90 E5        30.05S
STUTTGART      PTCLDY    75  66  73 SE7       30.05S
MONTICELLO     MOCLDY    70  69  97 CALM      30.04F

$$




USA.gov is the U.S. government's official web portal to all federal, state and local government web resources and services.